Regional Weather Roundup
Issued by NWS

Home | Current Version | Previous Version | Text Only | Print | Product List | Glossary Off
Versions: 1 2 3 4 5 6 7 8 9 10 11 12 13 14 15 16 17 18 19 20 21 22 23 24 25 26 27 28 29 30 31 32 33 34 35 36 37 38 39 40 41 42 43 44 45 46 47 48 49 50

000
ASUS43 KLOT 231412
RWRIL

ILLINOIS REGIONAL WEATHER ROUNDUP
NATIONAL WEATHER SERVICE CHICAGO/ROMEOVILLE IL
900 AM CDT SAT MAY 23 2015

NOTE: "FAIR" INDICATES FEW OR NO CLOUDS BELOW 12,000 FEET WITH NO
SIGNIFICANT WEATHER AND/OR OBSTRUCTIONS TO VISIBILITY.

* THESE STATIONS ARE NOT UNDER NWS QUALITY CONTROL. THEY ALSO MAY NOT
  REPORT WEATHER SUCH AS PRECIPITATION OR FOG.

ILZ001-002-007-009-015-016-024-231500-
NORTHWEST ILLINOIS

CITY           SKY/WX    TMP DP  RH WIND       PRES   REMARKS
MOLINE         SUNNY     68  53  58 SW5       30.30R
STERLING*      MOSUNNY   66  41  39 S7        30.32S
SAVANNA*       SUNNY     65  40  39 S7        30.31S
$$

ILZ003-004-008-010-011-017-018-231500-
NORTH CENTRAL ILLINOIS

CITY           SKY/WX    TMP DP  RH WIND       PRES   REMARKS
ROCKFORD       PTSUNNY   66  40  38 SE9       30.35R
FREEPORT*      MOSUNNY   64  41  43 SE10      30.34S
ROCHELLE*      MOSUNNY   65  40  39 SE14      30.34S
DE KALB*       SUNNY     62  40  44 SE13      30.35S
PERU*          SUNNY     64  41  43 SE8       30.34S
$$

ILZ005-006-012>014-019>023-231500-
NORTHEAST ILLINOIS

CITY           SKY/WX    TMP DP  RH WIND       PRES   REMARKS
CHICAGO-OHARE  MOSUNNY   64  36  35 S12       30.34S
CHICAGO-MIDWAY MOSUNNY   67  36  31 S8        30.35R
AURORA         MOSUNNY   65  38  36 SE9       30.35R
LANSING*       SUNNY     63  36  36 SE7       30.36S
JOLIET*        SUNNY     66  41  39 S9        30.35S
WAUKEGAN       SUNNY     65  36  34 S9        30.34S
DUPAGE AIRPORT SUNNY     63  40  42 S7        30.34R
KANKAKEE*      SUNNY     66  43  43 SE10      30.36R
WHEELING       SUNNY     65  35  33 S13       30.36S
MORRIS*        MOSUNNY   65  40  39 SE10      30.33R
ROMEOVILLE*    SUNNY     65  40  40 SE8       30.35R
NORTHERLY ISL    N/A     57  45  64 SE2         N/A
$$

LMZ740>746-231500-
SOUTHERN LAKE MICHIGAN

STATION/POSITION SKY/WX   TEMP    WIND        PRES    VSBY  WAVE
                          AIR SEA DIR/SP/G                  HT/PER
                          (F)     (DEG/KT/KT) (MB)    (MI)  (FT/S)
SOUTHERN BUOY              42 38  200/  4/  6 1028.9R         0
HARRISON CRIB              55     160/  9/ 11   N/A
BURNHAM HARBOR             59     130/  2/  6   N/A
CALUMET HARBOR             60     140/  6/  9   N/A
BURNS HARBOR               61     170/  9/ 14 1028.1F
MICHIGAN CITY              60     130/ 11/ 13   N/A
MICHIGAN CITY 6N           59 51  180/  8/  8   N/A           1
ST. JOSEPH                 57 53  200/  6/  6   N/A           1
$$

ILZ025>027-034>036-040-047-049-050-058-095>099-231500-
WEST-CENTRAL ILLINOIS

CITY           SKY/WX    TMP DP  RH WIND       PRES   REMARKS
QUINCY         PTSUNNY   68  52  56 S6        30.31S
GALESBURG*     SUNNY     67  55  65 S8        30.32S
MACOMB*        SUNNY     68  54  62 S7        30.34S
JACKSONVILLE*  PTSUNNY   72  54  52 S6        30.33S
PITTSFIELD*    PTSUNNY   67  54  62 SE3       30.33S
$$

ILZ028>032-037-038-041>044-048-051>054-059>061-231500-
CENTRAL ILLINOIS

CITY           SKY/WX    TMP DP  RH WIND       PRES   REMARKS
PONTIAC        SUNNY     67  46  45 S7        30.35R
BLOOMINGTON    SUNNY     69  50  50 S7        30.35R
DECATUR        MOSUNNY   70  54  56 S3        30.34R
PEORIA         SUNNY     68  52  56 S5        30.33R
LACON*         SUNNY     67  45  45 SE3       30.32S
LINCOLN*       SUNNY     71  55  56 S3        30.32S
SPRINGFIELD    MOSUNNY   71  56  58 S8        30.34R
TAYLORVILLE    PTSUNNY   64  55  72 S5        30.34S
$$

ILZ033-039-045-046-055>057-062-063-231500-
EAST-CENTRAL ILLINOIS

CITY           SKY/WX    TMP DP  RH WIND       PRES   REMARKS
CHAMPAIGN      MOSUNNY   72  51  47 SW7       30.35R
DANVILLE*      SUNNY     66  50  54 S7        30.34R
RANTOUL*       SUNNY     71  51  48 S7        30.35R
MATTOON        MOSUNNY   70  54  56 S6        30.35R
PARIS*         SUNNY     70  53  54 S5        30.37R
$$

ILZ079-100>102-231500-
SOUTHWEST ILLINOIS

CITY           SKY/WX    TMP DP  RH WIND       PRES   REMARKS
ALTON          PTSUNNY   68  57  68 SE6       30.34R
BELLEVILLE     PTSUNNY   68  57  67 SE5       30.32R
CAHOKIA*       CLOUDY    69  54  58 SE6       30.33R
SPARTA*        MOSUNNY   66  54  65 SE8       30.34R
$$

ILZ064>066-069>071-074>076-080>082-084>086-088>090-092>094-231500-
SOUTH-CENTRAL ILLINOIS

CITY           SKY/WX    TMP DP  RH WIND       PRES   REMARKS
CARBONDALE     MOSUNNY   69  53  56 SE8       30.33R
CAIRO*         MOSUNNY   68  54  60 E9        30.33S
EFFINGHAM*     CLOUDY    68  51  53 CALM      30.37S
MARION         MOSUNNY   70  55  60 SE6       30.34S
MT. VERNON     PTSUNNY   68  55  64 SE5       30.35S
CENTRALIA*     PTSUNNY   72  51  48 SE7       30.34S
SALEM*         PTSUNNY   70  54  55 SE3       30.35S
METROPOLIS*    PTSUNNY   67  55  65 E3        30.34S
$$

ILZ067-068-072-073-078-083-087-091-231500-
SOUTHEAST ILLINOIS

CITY           SKY/WX    TMP DP  RH WIND       PRES   REMARKS
LAWRENCEVILLE  CLOUDY    69  57  65 E3        30.37R
FLORA*         PTSUNNY   66  56  68 CALM      30.36R
FAIRFIELD*     CLOUDY    68  55  61 SE5       30.35R
HARRISBURG*    PTSUNNY   67  58  72 SE5       30.36S
ROBINSON*      PTSUNNY   69  54  59 CALM      30.38R
CARMI*         CLOUDY    67  53  60 SE3       30.36R
$$

ABBREVIATIONS USED IN REMARKS
   TC - TEMPERATURE IN CELSIUS
  WCI - WIND CHILL INDEX
   HX - HEAT INDEX
  VSB - VISIBILITY
$$



USA.gov is the U.S. government's official web portal to all federal, state and local government web resources and services.